�N����,����,�g�[���i���ԁj���x,�g�[�����x,��g�[���i���ցj���x,����
 2004/10/01, 0:00,26.2,60,24.9,25
 2004/10/01, 0:15,25.9,60,24.9,25.1
 2004/10/01, 0:30,25.8,60,24.9,25.1
 2004/10/01, 0:45,25.7,61,24.8,25.2
 2004/10/01, 1:00,25.6,61,24.8,25.2
 2004/10/01, 1:15,25.5,61,24.8,25.3
 2004/10/01, 1:30,25.4,61,24.7,25.3
 2004/10/01, 1:45,25.4,61,24.7,25.4
 2004/10/01, 2:00,25.3,62,24.7,25.5
 2004/10/01, 2:15,25.2,62,24.6,25.5
 2004/10/01, 2:30,25.1,62,24.6,25.5
 2004/10/01, 2:45,25,62,24.5,25.6
 2004/10/01, 3:00,24.9,62,24.5,25.6
 2004/10/01, 3:15,24.7,63,24.4,25.7
 2004/10/01, 3:30,24.7,63,24.4,25.7
 2004/10/01, 3:45,24.6,63,24.4,25.7
 2004/10/01, 4:00,24.5,63,24.3,25.8
 2004/10/01, 4:15,24.3,64,24.3,25.8
 2004/10/01, 4:30,24.3,64,24.2,25.9
 2004/10/01, 4:45,24.2,64,24.2,25.9
 2004/10/01, 5:00,24.1,64,24.1,25.9
 2004/10/01, 5:15,23.9,65,24.1,26
 2004/10/01, 5:30,23.8,65,24,26
 2004/10/01, 5:45,23.8,65,24,26
 2004/10/01, 6:00,23.8,65,23.9,26
 2004/10/01, 6:15,23.7,65,23.9,26
 2004/10/01, 6:30,23.7,65,23.9,24.8
 2004/10/01, 6:45,24.8,62,23.8,24.9
 2004/10/01, 7:00,25.4,60,23.8,25
 2004/10/01, 7:15,26.4,55,23.8,24.7
 2004/10/01, 7:30,26.2,55,23.9,24.4
 2004/10/01, 7:45,25.7,55,24.1,24.5
 2004/10/01, 8:00,25.6,56,24.3,24.6
 2004/10/01, 8:15,25.6,55,24.4,24.6
 2004/10/01, 8:30,25.6,54,24.2,24.6
 2004/10/01, 8:45,25.7,54,24.1,24.7
 2004/10/01, 9:00,25.8,53,24,24.7
 2004/10/01, 9:15,26,54,24.1,24.8
 2004/10/01, 9:30,26.2,53,24,24.8
 2004/10/01, 9:45,26.3,53,24.1,24.8
 2004/10/01,10:00,26.5,53,24.1,24.9
 2004/10/01,10:15,26.7,50,24.3,24.9
 2004/10/01,10:30,26.9,51,24.4,25
 2004/10/01,10:45,27.1,50,24.5,25
 2004/10/01,11:00,27.4,48,24.9,25
 2004/10/01,11:15,27.5,48,25.1,25.1
 2004/10/01,11:30,27.7,50,25.2,25.1
 2004/10/01,11:45,27.8,48,25.5,25.1
 2004/10/01,12:00,28,49,25.5,25.2
 2004/10/01,12:15,28.1,48,25.7,25.2
 2004/10/01,12:30,28.3,47,25.9,25.3
 2004/10/01,12:45,28.4,48,26,25.3
 2004/10/01,13:00,28.5,48,26.2,25.3
 2004/10/01,13:15,28.6,48,26.3,25.4
 2004/10/01,13:30,28.8,47,26.5,25.4
 2004/10/01,13:45,28.8,48,26.4,25.5
 2004/10/01,14:00,28.8,48,26.4,25.5
 2004/10/01,14:15,28.7,48,26.3,25.6
 2004/10/01,14:30,28.6,48,26.2,25.6
 2004/10/01,14:45,28.7,47,26.3,25.6
 2004/10/01,15:00,28.9,46,26.5,25.7
 2004/10/01,15:15,29.1,45,26.7,25.7
 2004/10/01,15:30,29.2,47,26.8,25.8
 2004/10/01,15:45,29.2,47,26.9,25.8
 2004/10/01,16:00,29.3,48,27,25.9
 2004/10/01,16:15,29.2,49,27,25.9
 2004/10/01,16:30,29,47,27,26
 2004/10/01,16:45,28.6,49,26.8,26
 2004/10/01,17:00,28.2,50,26.5,26.1
 2004/10/01,17:15,27.9,52,26.1,26.1
 2004/10/01,17:30,27.6,53,25.8,26.2
 2004/10/01,17:45,27.2,54,25.7,26.2
 2004/10/01,18:00,27.1,54,25.8,25.5
 2004/10/01,18:15,27,55,25.8,25.6
 2004/10/01,18:30,27.3,55,25.9,25.6
 2004/10/01,18:45,27.3,56,26,25.6
 2004/10/01,19:00,27.7,55,26.1,25.7
 2004/10/01,19:15,27.9,56,26.2,25.5
 2004/10/01,19:30,28,56,26.2,25.5
 2004/10/01,19:45,28.3,55,26.2,25.6
 2004/10/01,20:00,28.4,55,26.3,25.7
 2004/10/01,20:15,28.5,55,26.4,25.3
 2004/10/01,20:30,28.5,55,26.4,25.4
 2004/10/01,20:45,28.5,55,26.4,25.5
 2004/10/01,21:00,28.6,55,26.5,25.1
 2004/10/01,21:15,28.6,55,26.5,25.1
 2004/10/01,21:30,28.5,55,26.6,24.9
 2004/10/01,21:45,28.4,56,26.6,25
 2004/10/01,22:00,28.5,58,26.6,25
 2004/10/01,22:15,28.5,57,26.6,25.1
 2004/10/01,22:30,28.5,57,26.7,25.2
 2004/10/01,22:45,28.6,57,26.7,25.3
 2004/10/01,23:00,28.5,57,26.7,25.3
 2004/10/01,23:15,28.5,57,26.7,25.4
 2004/10/01,23:30,28.5,57,26.7,25.2
 2004/10/01,23:45,28.4,57,26.7,25.3
 2004/10/02, 0:00,28.4,58,26.6,25.3
 2004/10/02, 0:15,28.3,58,26.6,25.4
 2004/10/02, 0:30,28.2,57,26.6,25.5
 2004/10/02, 0:45,28,58,26.5,24.8
 2004/10/02, 1:00,27.9,58,26.5,24.9
 2004/10/02, 1:15,27.8,58,26.5,24.9
 2004/10/02, 1:30,27.6,58,26.4,24.9
 2004/10/02, 1:45,27.5,59,26.4,25
 2004/10/02, 2:00,27.4,59,26.3,25.1
 2004/10/02, 2:15,27.2,59,26.3,25.2
 2004/10/02, 2:30,27.2,59,26.2,25.3
 2004/10/02, 2:45,27.1,60,26.2,25.3
 2004/10/02, 3:00,27,60,26.1,25.4
 2004/10/02, 3:15,26.9,60,26.1,25.5
 2004/10/02, 3:30,26.9,60,26,25.5
 2004/10/02, 3:45,26.8,60,26,25.6
 2004/10/02, 4:00,26.7,60,25.9,25.6
 2004/10/02, 4:15,26.7,60,25.9,25.7
 2004/10/02, 4:30,26.6,59,25.8,25.8
 2004/10/02, 4:45,26.5,60,25.8,25.8
 2004/10/02, 5:00,26.5,59,25.8,25.9
 2004/10/02, 5:15,26.4,60,25.7,25.9
 2004/10/02, 5:30,26.4,60,25.7,26
 2004/10/02, 5:45,26.3,60,25.6,26
 2004/10/02, 6:00,26.3,60,25.6,26.1
 2004/10/02, 6:15,26.2,60,25.5,26.1
 2004/10/02, 6:30,26.2,60,25.5,26.2
 2004/10/02, 6:45,26.2,60,25.5,25.5
 2004/10/02, 7:00,26.2,61,25.4,25.9
 2004/10/02, 7:15,27.2,57,25.4,26
 2004/10/02, 7:30,27,58,25.4,26
 2004/10/02, 7:45,26.8,59,25.4,25
 2004/10/02, 8:00,26.8,60,25.4,24.7
 2004/10/02, 8:15,26.8,61,25.4,24.6
 2004/10/02, 8:30,26.7,61,25.4,24.7
 2004/10/02, 8:45,26.5,62,25.4,24.3
 2004/10/02, 9:00,26.4,64,25.7,24.4
 2004/10/02, 9:15,26.4,65,25.6,24.5
 2004/10/02, 9:30,26.3,66,25.5,24.6
 2004/10/02, 9:45,26.2,66,25.4,24.6
 2004/10/02,10:00,26.2,66,25.4,24.7
 2004/10/02,10:15,26.2,67,25.4,24.8
 2004/10/02,10:30,26,67,25.3,24.8
 2004/10/02,10:45,26,68,25.3,24.9
 2004/10/02,11:00,26,68,25.3,24.9
 2004/10/02,11:15,26,67,25.3,25
 2004/10/02,11:30,26,67,25.3,25.1
 2004/10/02,11:45,25.9,68,25.2,25.1
 2004/10/02,12:00,25.9,68,25.2,25.2
 2004/10/02,12:15,25.9,67,25.2,25.2
 2004/10/02,12:30,25.8,67,25.2,25.3
 2004/10/02,12:45,25.9,66,25.2,25.3
 2004/10/02,13:00,25.9,66,25.2,25.4
 2004/10/02,13:15,26,65,25.2,24.8
 2004/10/02,13:30,26.3,64,25.2,24.9
 2004/10/02,13:45,26.2,64,25.2,25
 2004/10/02,14:00,26.2,64,25.2,25
 2004/10/02,14:15,26,64,25.2,25.1
 2004/10/02,14:30,26,64,25.1,25.1
 2004/10/02,14:45,26.2,65,25.1,25.2
 2004/10/02,15:00,25.8,67,25,25.3
 2004/10/02,15:15,26,65,25.1,25.3
 2004/10/02,15:30,26.6,65,25.2,25.4
 2004/10/02,15:45,26.8,64,25.2,25.4
 2004/10/02,16:00,26.8,64,25.3,25.5
 2004/10/02,16:15,26.8,63,25.4,25.1
 2004/10/02,16:30,26.9,63,25.4,25.1
 2004/10/02,16:45,26.9,63,25.5,25.2
 2004/10/02,17:00,26.9,62,25.5,25.3
 2004/10/02,17:15,26.8,62,25.5,24.9
 2004/10/02,17:30,26.6,64,25.5,24.9
 2004/10/02,17:45,26.6,64,25.4,25
 2004/10/02,18:00,26.7,64,25.4,25.1
 2004/10/02,18:15,26.9,64,25.4,24.8
 2004/10/02,18:30,27,64,25.4,24.9
 2004/10/02,18:45,27.2,64,25.4,24.4
 2004/10/02,19:00,27.3,63,25.7,24.5
 2004/10/02,19:15,27.2,63,25.7,24.5
 2004/10/02,19:30,27.3,63,25.7,24.6
 2004/10/02,19:45,27.3,64,25.7,24.6
 2004/10/02,20:00,27.3,64,25.7,24.7
 2004/10/02,20:15,27.6,63,25.7,24.7
 2004/10/02,20:30,27.5,64,25.7,24.8
 2004/10/02,20:45,27.5,63,25.7,24.5
 2004/10/02,21:00,27.5,63,25.7,24.6
 2004/10/02,21:15,27.4,63,25.7,24.6
 2004/10/02,21:30,27.4,63,25.8,24.7
 2004/10/02,21:45,27.4,63,25.7,24.6
 2004/10/02,22:00,27.2,65,25.8,24.7
 2004/10/02,22:15,27.1,65,25.8,24.4
 2004/10/02,22:30,27,66,25.8,24.5
 2004/10/02,22:45,27.2,68,25.9,24.6
 2004/10/02,23:00,27.2,66,25.9,24.6
 2004/10/02,23:15,27,67,25.9,24.7
 2004/10/02,23:30,26.9,67,25.8,24.8
 2004/10/02,23:45,26.8,68,25.8,24.8
 2004/10/03, 0:00,26.7,68,25.8,24.8
 2004/10/03, 0:15,26.7,68,25.8,24.9
 2004/10/03, 0:30,26.6,68,25.8,25
 2004/10/03, 0:45,26.5,68,25.7,25
 2004/10/03, 1:00,26.5,68,25.7,25.1
 2004/10/03, 1:15,26.4,68,25.6,25.1
 2004/10/03, 1:30,26.3,67,25.6,25.2
 2004/10/03, 1:45,26.3,66,25.5,25.3
 2004/10/03, 2:00,26.2,66,25.4,25.3
 2004/10/03, 2:15,26,66,25.4,25.4
 2004/10/03, 2:30,25.9,66,25.3,25.5
 2004/10/03, 2:45,25.9,66,25.3,25.5
 2004/10/03, 3:00,25.8,66,25.2,25.4
 2004/10/03, 3:15,25.7,66,25.2,25.2
 2004/10/03, 3:30,25.7,66,25.1,25.3
 2004/10/03, 3:45,25.6,65,25.1,25.3
 2004/10/03, 4:00,25.5,65,25,25.4
 2004/10/03, 4:15,25.5,65,25,25.5
 2004/10/03, 4:30,25.4,64,24.9,25.5
 2004/10/03, 4:45,25.4,64,24.9,25.6
 2004/10/03, 5:00,25.3,64,24.8,25.6
 2004/10/03, 5:15,25.2,64,24.8,25.6
 2004/10/03, 5:30,25.2,64,24.7,25.7
 2004/10/03, 5:45,25.2,63,24.7,25.7
 2004/10/03, 6:00,25,63,24.6,25.8
 2004/10/03, 6:15,25,63,24.6,25.8
 2004/10/03, 6:30,24.9,63,24.6,25.8
 2004/10/03, 6:45,24.9,63,24.5,25.9
 2004/10/03, 7:00,24.8,63,24.5,25.9
 2004/10/03, 7:15,24.8,63,24.4,26
 2004/10/03, 7:30,24.8,62,24.4,25.1
 2004/10/03, 7:45,24.7,63,24.4,25.3
 2004/10/03, 8:00,25.4,59,24.3,25.4
 2004/10/03, 8:15,25.8,57,24.3,25.4
 2004/10/03, 8:30,25.7,57,24.3,24.7
 2004/10/03, 8:45,25.6,57,24.5,24.7
 2004/10/03, 9:00,25.5,58,24.5,24.4
 2004/10/03, 9:15,25.5,58,24.4,24.5
 2004/10/03, 9:30,25.3,59,24.3,24.3
 2004/10/03, 9:45,25.3,59,24.3,24.4
 2004/10/03,10:00,25.2,59,24.3,24.5
 2004/10/03,10:15,25.1,58,24.2,24.2
 2004/10/03,10:30,25,60,24.2,24.2
 2004/10/03,10:45,25,59,24.2,24.3
 2004/10/03,11:00,25,59,24.1,24.3
 2004/10/03,11:15,24.9,61,24.1,24.3
 2004/10/03,11:30,24.9,62,24.1,24.4
 2004/10/03,11:45,24.9,63,24.1,24.4
 2004/10/03,12:00,25,65,24.1,24.5
 2004/10/03,12:15,25.4,65,24.2,24.3
 2004/10/03,12:30,25.9,64,24.2,24.4
 2004/10/03,12:45,26.2,64,24.3,24.4
 2004/10/03,13:00,26.4,63,24.4,24.5
 2004/10/03,13:15,26.4,61,24.5,24.6
 2004/10/03,13:30,26.5,62,24.6,24.6
 2004/10/03,13:45,26.3,59,24.6,24.7
 2004/10/03,14:00,26.2,60,24.6,24.7
 2004/10/03,14:15,26.3,58,24.6,24.7
 2004/10/03,14:30,26.2,57,24.6,24.7
 2004/10/03,14:45,25.9,57,24.6,24.8
 2004/10/03,15:00,25.9,56,24.6,24.8
 2004/10/03,15:15,25.9,56,24.6,24.9
 2004/10/03,15:30,25.8,57,24.6,24.7
 2004/10/03,15:45,25.7,57,24.6,24.7
 2004/10/03,16:00,25.7,55,24.6,24.7
 2004/10/03,16:15,25.5,56,24.6,24.7
 2004/10/03,16:30,25.5,56,24.5,24.8
 2004/10/03,16:45,25.5,57,24.5,24.8
 2004/10/03,17:00,25.4,57,24.5,24.5
 2004/10/03,17:15,25.4,57,24.5,24.6
 2004/10/03,17:30,25.4,57,24.5,24.6
 2004/10/03,17:45,25.5,58,24.5,24.6
 2004/10/03,18:00,25.4,58,24.5,24.5
 2004/10/03,18:15,25.5,59,24.4,24.5
 2004/10/03,18:30,25.6,59,24.4,24.4
 2004/10/03,18:45,25.9,59,24.4,24.4
 2004/10/03,19:00,26.3,59,24.4,24.3
 2004/10/03,19:15,26.4,59,24.4,24.3
 2004/10/03,19:30,26.5,59,24.3,24.4
 2004/10/03,19:45,26.2,59,24.3,24.5
 2004/10/03,20:00,26.2,61,24.2,24.5
 2004/10/03,20:15,26.2,61,24.2,24.4
 2004/10/03,20:30,26,61,24.2,24.4
 2004/10/03,20:45,26,61,24.1,24.5
 2004/10/03,21:00,26,61,24.1,24
 2004/10/03,21:15,26.2,60,24.1,23.8
 2004/10/03,21:30,26.2,59,24.1,23.9
 2004/10/03,21:45,25.9,58,24.1,24
 2004/10/03,22:00,25.9,57,24.1,24.1
 2004/10/03,22:15,25.8,55,24.1,24.1
 2004/10/03,22:30,25.7,54,24.1,24.2
 2004/10/03,22:45,25.6,55,24.1,24.2
 2004/10/03,23:00,25.5,55,24.1,24
 2004/10/03,23:15,25.4,55,24,24.1
 2004/10/03,23:30,25.1,55,24,24.4
 2004/10/03,23:45,24.8,56,24,24.4
 2004/10/04, 0:00,24.7,58,24,24.4
 2004/10/04, 0:15,24.6,57,24,24.5
 2004/10/04, 0:30,24.5,57,23.9,24.5
 2004/10/04, 0:45,24.4,57,23.9,24.6
 2004/10/04, 1:00,24.3,58,23.9,24.6
 2004/10/04, 1:15,24.1,58,23.9,24.6
 2004/10/04, 1:30,24.1,58,23.8,24.7
 2004/10/04, 1:45,24,59,23.8,24.7
 2004/10/04, 2:00,23.9,59,23.7,24.8
 2004/10/04, 2:15,23.8,59,23.7,24.8
 2004/10/04, 2:30,23.7,59,23.6,24.8
 2004/10/04, 2:45,23.6,60,23.6,24.9
 2004/10/04, 3:00,23.6,60,23.6,24.9
 2004/10/04, 3:15,23.6,60,23.5,24.9
 2004/10/04, 3:30,23.5,60,23.5,25
 2004/10/04, 3:45,23.4,61,23.4,25
 2004/10/04, 4:00,23.4,61,23.4,25
 2004/10/04, 4:15,23.3,61,23.4,25.1
 2004/10/04, 4:30,23.3,61,23.4,25.1
 2004/10/04, 4:45,23.2,62,23.3,25.1
 2004/10/04, 5:00,23.1,62,23.3,25.1
 2004/10/04, 5:15,23.1,62,23.2,25.2
 2004/10/04, 5:30,23,63,23.2,25.2
 2004/10/04, 5:45,23,63,23.2,24.2
 2004/10/04, 6:00,23,64,23.2,24.1
 2004/10/04, 6:15,23.3,64,23.2,24.2
 2004/10/04, 6:30,24,64,23.2,24.2
 2004/10/04, 6:45,24.4,62,23.2,24.3
 2004/10/04, 7:00,24.6,61,23.3,24.3
 2004/10/04, 7:15,25.2,60,23.4,24
 2004/10/04, 7:30,25.3,60,23.4,24.1
 2004/10/04, 7:45,25.2,60,23.4,23.5
 2004/10/04, 8:00,25.1,60,23.5,23.6
 2004/10/04, 8:15,25.2,60,23.6,23.7
 2004/10/04, 8:30,25.1,60,23.6,23.8
 2004/10/04, 8:45,25.1,60,23.7,23.8
 2004/10/04, 9:00,25.1,60,23.7,23.9
 2004/10/04, 9:15,25.3,59,23.8,23.9
 2004/10/04, 9:30,25.4,58,23.8,24
 2004/10/04, 9:45,25.6,57,23.8,24
 2004/10/04,10:00,25.8,55,23.8,24.1
 2004/10/04,10:15,25.9,54,23.9,24.1
 2004/10/04,10:30,25.8,53,23.9,24.1
 2004/10/04,10:45,25.8,53,23.9,24.2
 2004/10/04,11:00,25.9,53,23.9,24.2
 2004/10/04,11:15,26.2,52,24,24.3
 2004/10/04,11:30,26.4,51,24.1,24.3
 2004/10/04,11:45,26.7,51,24.3,24.4
 2004/10/04,12:00,26.7,51,24.4,24.4
 2004/10/04,12:15,26.8,50,24.4,24.4
 2004/10/04,12:30,26.9,48,24.4,24.5
 2004/10/04,12:45,27.1,49,24.5,24.5
 2004/10/04,13:00,27.1,48,24.6,24.6
 2004/10/04,13:15,27.2,48,24.7,24.6
 2004/10/04,13:30,27.3,48,24.7,24.6
 2004/10/04,13:45,27.2,47,24.8,24.7
 2004/10/04,14:00,27.3,47,24.7,24.7
 2004/10/04,14:15,27.2,47,24.7,24.7
 2004/10/04,14:30,27.2,47,24.7,24.8
 2004/10/04,14:45,27.2,46,24.6,24.8
 2004/10/04,15:00,27.2,46,24.6,24.9
 2004/10/04,15:15,27.3,46,24.7,24.9
 2004/10/04,15:30,27.3,45,24.7,24.9
 2004/10/04,15:45,27.4,45,24.8,25
 2004/10/04,16:00,27.4,46,24.8,25
 2004/10/04,16:15,27.4,46,24.8,25.1
 2004/10/04,16:30,27,47,24.8,25.1
 2004/10/04,16:45,26.7,48,24.7,25.2
 2004/10/04,17:00,26.5,49,24.8,25.2
 2004/10/04,17:15,26.3,49,25,25.3
 2004/10/04,17:30,26.3,49,25.2,25.3
 2004/10/04,17:45,26.2,49,24.9,25.3
 2004/10/04,18:00,26,50,24.8,25.4
 2004/10/04,18:15,25.9,50,24.8,25.4
 2004/10/04,18:30,25.8,50,24.7,25.5
 2004/10/04,18:45,25.9,51,24.8,24.8
 2004/10/04,19:00,26,50,24.7,24.3
 2004/10/04,19:15,26.3,51,24.7,24.4
 2004/10/04,19:30,26.4,50,24.7,24.5
 2004/10/04,19:45,26.4,50,24.7,24.5
 2004/10/04,20:00,26.4,51,24.7,24.2
 2004/10/04,20:15,26.2,51,24.7,24.2
 2004/10/04,20:30,26.3,51,24.6,24.2
 2004/10/04,20:45,26.3,51,24.6,24.2
 2004/10/04,21:00,26.2,52,24.7,24.3
 2004/10/04,21:15,26,52,24.9,24.4
 2004/10/04,21:30,25.9,53,25,24.4
 2004/10/04,21:45,26.2,52,25.1,24.5
 2004/10/04,22:00,26.3,53,24.9,24.5
 2004/10/04,22:15,26.2,54,24.9,24.6
 2004/10/04,22:30,26.3,56,24.9,24.6
 2004/10/04,22:45,26.5,55,24.9,24
 2004/10/04,23:00,26.6,56,24.9,23.7
 2004/10/04,23:15,26.6,55,24.9,23.8
 2004/10/04,23:30,26.3,57,24.9,23.9
 2004/10/04,23:45,26.2,57,24.8,23.9
 2004/10/05, 0:00,26,57,24.8,24
 2004/10/05, 0:15,25.9,57,24.8,24.1
 2004/10/05, 0:30,25.9,57,24.8,24.1
 2004/10/05, 0:45,25.8,57,24.7,24.2
 2004/10/05, 1:00,25.8,57,24.7,24.3
 2004/10/05, 1:15,25.7,58,24.7,24.3
 2004/10/05, 1:30,25.7,58,24.7,24.4
 2004/10/05, 1:45,25.6,58,24.7,24.4
 2004/10/05, 2:00,25.6,58,24.6,24.5
 2004/10/05, 2:15,25.5,58,24.6,24.5
 2004/10/05, 2:30,25.5,58,24.6,24.6
 2004/10/05, 2:45,25.5,58,24.6,24.6
 2004/10/05, 3:00,25.4,59,24.5,24.7
 2004/10/05, 3:15,25.3,59,24.5,24.7
 2004/10/05, 3:30,25.3,59,24.5,24.8
 2004/10/05, 3:45,25.2,59,24.5,24.8
 2004/10/05, 4:00,25.2,59,24.4,24.9
 2004/10/05, 4:15,25.2,59,24.4,24.9
 2004/10/05, 4:30,25.1,60,24.4,25
 2004/10/05, 4:45,25.1,60,24.4,25
 2004/10/05, 5:00,25,60,24.4,25
 2004/10/05, 5:15,25,60,24.3,25.1
 2004/10/05, 5:30,24.9,61,24.3,25.1
 2004/10/05, 5:45,24.9,61,24.3,25.2
 2004/10/05, 6:00,25,61,24.3,25.5
 2004/10/05, 6:15,25.9,60,24.4,25.5
 2004/10/05, 6:30,25.9,61,24.3,25.5
 2004/10/05, 6:45,26.2,61,24.3,24.4
 2004/10/05, 7:00,26.2,62,24.3,24.5
 2004/10/05, 7:15,25.9,63,24.4,24.6
 2004/10/05, 7:30,25.7,63,24.3,24.6
 2004/10/05, 7:45,25.5,65,24.4,23.8
 2004/10/05, 8:00,25.3,66,24.4,23.9
 2004/10/05, 8:15,25.2,67,24.4,24
 2004/10/05, 8:30,25.1,67,24.3,24
 2004/10/05, 8:45,25,67,24.3,24.1
 2004/10/05, 9:00,24.8,68,24.3,24.2
 2004/10/05, 9:15,24.7,69,24.2,24.2
 2004/10/05, 9:30,24.6,68,24.1,24.3
 2004/10/05, 9:45,24.6,68,24.1,24.3
 2004/10/05,10:00,24.5,68,24,24.4
 2004/10/05,10:15,24.4,69,24,24.4
 2004/10/05,10:30,24.3,69,24,24.5
 2004/10/05,10:45,24.3,69,23.9,24.5
 2004/10/05,11:00,24.3,68,23.9,24.6
 2004/10/05,11:15,24.3,69,23.9,24.6
 2004/10/05,11:30,24.2,70,23.9,24.7
 2004/10/05,11:45,24.1,69,23.9,24.7
 2004/10/05,12:00,24.1,69,23.8,24.7
 2004/10/05,12:15,24.1,69,23.8,24.8
 2004/10/05,12:30,24,69,23.8,24.8
 2004/10/05,12:45,24,69,23.7,24.8
 2004/10/05,13:00,23.9,69,23.7,24.9
 2004/10/05,13:15,23.9,69,23.7,24.9
 2004/10/05,13:30,23.9,68,23.6,25
 2004/10/05,13:45,23.9,68,23.6,25
 2004/10/05,14:00,23.9,68,23.6,25
 2004/10/05,14:15,23.8,68,23.6,25.1
 2004/10/05,14:30,23.8,68,23.6,25.1
 2004/10/05,14:45,23.8,68,23.6,25.1
 2004/10/05,15:00,23.8,68,23.6,25.1
 2004/10/05,15:15,23.7,68,23.5,25.2
 2004/10/05,15:30,23.7,68,23.5,25.2
 2004/10/05,15:45,23.8,68,23.5,25.2
 2004/10/05,16:00,23.8,68,23.5,25.3
 2004/10/05,16:15,23.8,68,23.5,25.3
 2004/10/05,16:30,23.7,65,23.5,25.3
 2004/10/05,16:45,24,66,23.4,25.3
 2004/10/05,17:00,24.2,66,23.4,25.3
 2004/10/05,17:15,24.2,65,23.4,25.4
 2004/10/05,17:30,24.3,66,23.3,25.4
 2004/10/05,17:45,24.5,65,23.2,25.4
 2004/10/05,18:00,24.7,64,23.2,25.4
 2004/10/05,18:15,24.8,65,23.1,25.4
 2004/10/05,18:30,25.1,62,23,25.5
 2004/10/05,18:45,25.2,59,22.9,25.5
 2004/10/05,19:00,25,58,22.7,25.5
 2004/10/05,19:15,24.8,58,22.7,23.6
 2004/10/05,19:30,24.6,59,22.6,23.8
 2004/10/05,19:45,24.7,60,22.6,23.9
 2004/10/05,20:00,24.9,64,22.6,23.9
 2004/10/05,20:15,24.9,63,22.7,24
 2004/10/05,20:30,25,62,22.7,23.7
 2004/10/05,20:45,25,63,22.7,23.7
 2004/10/05,21:00,24.9,63,22.7,23.8
 2004/10/05,21:15,24.7,64,22.7,23.8
 2004/10/05,21:30,24.6,65,22.8,23.9
 2004/10/05,21:45,24.5,65,22.8,23.9
 2004/10/05,22:00,24.4,65,22.9,24
 2004/10/05,22:15,24.3,66,22.9,24
 2004/10/05,22:30,24.3,66,22.9,23.9
 2004/10/05,22:45,24.3,66,22.9,23.9
 2004/10/05,23:00,24.2,66,23,24
 2004/10/05,23:15,24.1,66,23,23.7
 2004/10/05,23:30,24,67,23.1,23.7
 2004/10/05,23:45,23.9,67,23.1,23.8
 2004/10/06, 0:00,23.8,67,23.1,23.8
 2004/10/06, 0:15,23.7,67,23.1,23.9
 2004/10/06, 0:30,23.6,68,23.1,23.9
 2004/10/06, 0:45,23.5,68,23.1,23.9
 2004/10/06, 1:00,23.5,68,23.1,24
 2004/10/06, 1:15,23.4,68,23,24
 2004/10/06, 1:30,23.3,68,23,24.1
 2004/10/06, 1:45,23.3,68,23,24.1
 2004/10/06, 2:00,23.3,68,23,24.1
 2004/10/06, 2:15,23.2,68,23,23.8
 2004/10/06, 2:30,23.2,68,23,23.8
 2004/10/06, 2:45,23.1,68,22.9,23.9
 2004/10/06, 3:00,23.1,68,22.9,23.9
 2004/10/06, 3:15,23,68,22.9,24
 2004/10/06, 3:30,23,68,22.9,24
 2004/10/06, 3:45,23,68,22.8,24
 2004/10/06, 4:00,22.9,68,22.8,24.1
 2004/10/06, 4:15,22.9,68,22.8,24.1
 2004/10/06, 4:30,22.9,68,22.7,24.1
 2004/10/06, 4:45,22.8,68,22.7,24.2
 2004/10/06, 5:00,22.8,68,22.7,24.2
 2004/10/06, 5:15,22.7,68,22.6,24.2
 2004/10/06, 5:30,22.7,68,22.6,23.7
 2004/10/06, 5:45,22.6,68,22.5,23.8
 2004/10/06, 6:00,22.6,67,22.5,23.9
 2004/10/06, 6:15,22.6,67,22.5,23.9
 2004/10/06, 6:30,22.7,67,22.5,24
 2004/10/06, 6:45,23.2,66,22.5,24
 2004/10/06, 7:00,23.3,66,22.5,23.8
 2004/10/06, 7:15,23.3,65,22.5,23.9
 2004/10/06, 7:30,24.4,60,22.5,23.6
 2004/10/06, 7:45,24,61,22.6,23.4
 2004/10/06, 8:00,23.7,63,22.5,23.4
 2004/10/06, 8:15,23.8,62,22.5,23.5
 2004/10/06, 8:30,23.7,64,22.6,23.1
 2004/10/06, 8:45,24.6,63,22.6,23.2
 2004/10/06, 9:00,24.5,63,22.7,23.2
 2004/10/06, 9:15,24.4,64,22.8,23.2
 2004/10/06, 9:30,24.6,63,22.8,23.3
 2004/10/06, 9:45,24.2,64,22.8,23.3
 2004/10/06,10:00,24,65,22.8,23.4
 2004/10/06,10:15,24.5,64,22.8,23.4
 2004/10/06,10:30,25.1,61,22.9,23.5
 2004/10/06,10:45,25.6,60,23.1,23.5
 2004/10/06,11:00,25.8,59,23.2,23.6
 2004/10/06,11:15,25.6,59,23.3,23.6
 2004/10/06,11:30,25.3,60,23.4,23.6
 2004/10/06,11:45,25.2,60,23.4,23.7
 2004/10/06,12:00,25.9,58,23.5,23.7
 2004/10/06,12:15,26,58,23.6,23.8
 2004/10/06,12:30,26.5,56,23.7,23.8
 2004/10/06,12:45,26.6,56,23.8,23.8
 2004/10/06,13:00,26.7,55,23.9,23.9
 2004/10/06,13:15,26.5,55,24,23.9
 2004/10/06,13:30,26.7,55,24.1,24
 2004/10/06,13:45,26.5,55,24.1,24
 2004/10/06,14:00,26.7,53,24.1,24
 2004/10/06,14:15,26.7,53,24.1,24.1
 2004/10/06,14:30,26.5,53,24.2,24.1
 2004/10/06,14:45,26.3,53,24.2,24.2
 2004/10/06,15:00,26.4,53,24.2,24.2
 2004/10/06,15:15,26.4,53,24.3,24.2
 2004/10/06,15:30,26.4,53,24.3,24.3
 2004/10/06,15:45,26.4,52,24.4,24.3
 2004/10/06,16:00,26.4,53,24.4,24.3
 2004/10/06,16:15,26,50,24.4,24.4
 2004/10/06,16:30,25.5,49,24.3,24.4
 2004/10/06,16:45,25.4,49,24.2,24.5
 2004/10/06,17:00,25.4,51,24.3,23.8
 2004/10/06,17:15,25.3,52,24.3,23.9
 2004/10/06,17:30,25.2,53,24.2,24
 2004/10/06,17:45,25.2,53,24.1,24
 2004/10/06,18:00,25.1,53,24.1,24.1
 2004/10/06,18:15,25.1,53,24,24.2
 2004/10/06,18:30,25.2,54,24,24.2
 2004/10/06,18:45,25.4,54,24,24.2
 2004/10/06,19:00,25.6,53,23.9,24.3
 2004/10/06,19:15,25.6,52,23.9,24.3
 2004/10/06,19:30,25.5,51,23.9,24.4
 2004/10/06,19:45,25.4,52,23.9,24.4
 2004/10/06,20:00,25.4,52,23.8,24.5
 2004/10/06,20:15,25.4,52,23.8,24.5
 2004/10/06,20:30,25.3,52,23.8,24.5
 2004/10/06,20:45,25.3,52,23.7,24.6
 2004/10/06,21:00,25.3,52,23.7,24.6
 2004/10/06,21:15,25.1,53,23.7,23.7
 2004/10/06,21:30,25,54,23.7,23.8
 2004/10/06,21:45,24.9,54,23.7,23.9
 2004/10/06,22:00,25.2,54,23.7,24
 2004/10/06,22:15,25.2,55,23.7,24
 2004/10/06,22:30,25.3,55,23.7,24.1
 2004/10/06,22:45,25.4,56,23.7,24.1
 2004/10/06,23:00,25.3,56,23.7,23.9
 2004/10/06,23:15,25.2,57,23.8,23.9
 2004/10/06,23:30,25,59,23.8,24
 2004/10/06,23:45,24.9,59,23.8,24
 2004/10/07, 0:00,25.1,61,23.8,24.1
 2004/10/07, 0:15,25.2,62,23.8,24.1
 2004/10/07, 0:30,24.9,61,23.8,23.7
 2004/10/07, 0:45,24.8,61,23.8,23.8
 2004/10/07, 1:00,24.7,61,23.7,23.8
 2004/10/07, 1:15,24.6,61,23.7,23.9
 2004/10/07, 1:30,24.5,61,23.6,23.9
 2004/10/07, 1:45,24.3,62,23.6,24
 2004/10/07, 2:00,24.3,62,23.6,24
 2004/10/07, 2:15,24.1,62,23.5,24.1
 2004/10/07, 2:30,24,62,23.5,24.1
 2004/10/07, 2:45,24,62,23.4,24.2
 2004/10/07, 3:00,23.8,62,23.4,24.2
 2004/10/07, 3:15,23.7,63,23.3,24.3
 2004/10/07, 3:30,23.6,63,23.3,24.3
 2004/10/07, 3:45,23.5,63,23.2,24.3
 2004/10/07, 4:00,23.5,63,23.2,24.4
 2004/10/07, 4:15,23.5,64,23.1,24.4
 2004/10/07, 4:30,23.3,64,23.1,24.4
 2004/10/07, 4:45,23.3,64,23,24.5
 2004/10/07, 5:00,23.2,64,23,23.9
 2004/10/07, 5:15,23.9,61,22.9,23.8
 2004/10/07, 5:30,23.7,62,22.9,24.8
 2004/10/07, 5:45,23.4,63,22.9,24.8
 2004/10/07, 6:00,23.3,63,22.9,24.8
 2004/10/07, 6:15,23.2,64,22.8,24.5
 2004/10/07, 6:30,23.6,63,22.8,24.5
 2004/10/07, 6:45,24,61,22.8,24.5
 2004/10/07, 7:00,24.2,59,22.7,24.2
 2004/10/07, 7:15,24.3,58,22.7,23.8
 2004/10/07, 7:30,24.5,57,22.7,23.8
 2004/10/07, 7:45,25,55,22.7,23.9
 2004/10/07, 8:00,24.9,55,22.7,23.9
 2004/10/07, 8:15,24.7,54,22.7,23.4
 2004/10/07, 8:30,25.1,53,22.7,23.4
 2004/10/07, 8:45,24.9,54,22.8,23.1
 2004/10/07, 9:00,24.9,55,22.9,23.2
 2004/10/07, 9:15,24.9,55,23,23.2
 2004/10/07, 9:30,25,55,23.1,23.3
 2004/10/07, 9:45,25.2,55,23.2,23.4
 2004/10/07,10:00,25.4,55,23.3,23.4
 2004/10/07,10:15,25.7,54,23.5,23.4
 2004/10/07,10:30,25.9,55,23.7,23.5
 2004/10/07,10:45,25.9,55,23.8,23.5
 2004/10/07,11:00,25.9,55,23.9,23.6
 2004/10/07,11:15,25.7,54,23.9,23.6
 2004/10/07,11:30,25.5,55,23.9,23.7
 2004/10/07,11:45,25.3,55,23.9,23.7
 2004/10/07,12:00,25.1,56,23.9,23.8
 2004/10/07,12:15,24.9,57,23.8,23.8
 2004/10/07,12:30,24.8,57,23.8,23.9
 2004/10/07,12:45,24.7,58,23.7,23.9
 2004/10/07,13:00,24.7,58,23.7,23.9
 2004/10/07,13:15,24.5,58,23.7,24
 2004/10/07,13:30,24.5,58,23.7,24
 2004/10/07,13:45,24.5,58,23.7,24.1
 2004/10/07,14:00,24.4,59,23.6,24.1
 2004/10/07,14:15,24.5,59,23.6,24.1
 2004/10/07,14:30,24.5,59,23.7,24.2
 2004/10/07,14:45,24.5,58,23.7,24.2
 2004/10/07,15:00,24.5,58,23.7,24.3
 2004/10/07,15:15,24.5,59,23.7,24.3
 2004/10/07,15:30,24.4,60,23.7,24.3
 2004/10/07,15:45,24,63,23.7,24.4
 2004/10/07,16:00,24,64,23.7,24.4
 2004/10/07,16:15,23.7,64,23.7,24.4
 2004/10/07,16:30,23.6,62,23.7,24.5
 2004/10/07,16:45,23.5,61,23.6,24.5
 2004/10/07,17:00,23.3,60,23.6,24.5
 2004/10/07,17:15,23.4,60,23.6,24.2
 2004/10/07,17:30,23.6,60,23.6,24.2
 2004/10/07,17:45,24.1,60,23.6,24.3
 2004/10/07,18:00,24.4,59,23.7,24.3
 2004/10/07,18:15,24.7,59,23.7,24.4
 2004/10/07,18:30,24.8,59,23.8,23.9
 2004/10/07,18:45,24.9,59,23.8,24
 2004/10/07,19:00,25.2,59,23.8,23.9
 2004/10/07,19:15,25.4,59,23.9,24
 2004/10/07,19:30,25.6,59,23.9,24.1
 2004/10/07,19:45,25.6,59,24,24.1